Location: Jetmore Oil Field
(38.1181°N, 99.9337°W)
Time: 20:06:44
(UTC+00:00)

ISS - Pass Details

Date: 24 June 2021
Orbit: 419 x 421 km, 51.6° (Epoch: 29 July)

Event Time Altitude Azimuth Distance (km) Brightness Sun altitude
Exits shadow 10:41:20 - 202° (SSW) 1,833 -1.0 -6.8°
Reaches altitude 10° 10:42:14 10° 197° (SSW) 1,489 -1.4 -6.7°
Maximum altitude 10:45:13 30° 134° (SE) 772 -2.3 -6.2°
Drops below altitude 10° 10:48:13 10° 70° (ENE) 1,497 0.6 -5.7°
Sets 10:50:28 0° 60° (ENE) 2,364 2.8 -5.3°
